This is the latest recevied weather packets stored in our database for station/object N6GPM. If no packets are shown the sender has not sent any weather packets the latest 10 day(s).
| Time | Temp. | Humidity | Pressure | Rain* | Wind** | Luminosity | Snow |
|---|---|---|---|---|---|---|---|
| 1778015556 | 16.67° C | 53% | 1017.7 hPa | 0 mm | - | 402 W/m² | - |
| 1778015252 | 16.67° C | 54% | 1017.8 hPa | 0 mm | - | 246 W/m² | - |
| 1778014949 | 16.67° C | 53% | 1017.7 hPa | 0 mm | - | 238 W/m² | - |
| 1778014646 | 16.11° C | 55% | 1017.6 hPa | 0 mm | - | 237 W/m² | - |
| 1778014345 | 17.22° C | 53% | 1017.7 hPa | 0 mm | - | 249 W/m² | - |
| 1778014041 | 17.22° C | 51% | 1017.9 hPa | 0 mm | - | 264 W/m² | - |
| 1778013739 | 17.22° C | 51% | 1017.7 hPa | 0 mm | - | 301 W/m² | - |
| 1778013436 | 17.22° C | 52% | 1017.7 hPa | 0 mm | - | 504 W/m² | - |
| 1778013132 | 16.67° C | 52% | 1017.7 hPa | 0 mm | - | 434 W/m² | - |
| 1778012828 | 17.22° C | 52% | 1017.7 hPa | 0 mm | - | 853 W/m² | - |
| 1778012525 | 16.67° C | 54% | 1017.8 hPa | 0 mm | - | 337 W/m² | - |
| 1778012220 | 16.11° C | 55% | 1018 hPa | 0 mm | - | 908 W/m² | - |
| 1778011919 | 16.11° C | 55% | 1017.7 hPa | 0 mm | - | 387 W/m² | - |
| 1778011611 | 16.67° C | 56% | 1017.9 hPa | 0 mm | - | 1051 W/m² | - |
| 1778011308 | 16.67° C | 55% | 1017.8 hPa | 0 mm | - | 565 W/m² | - |
| 1778011003 | 16.67° C | 58% | 1017.7 hPa | 0 mm | - | 510 W/m² | - |
| 1778010701 | 16.11° C | 55% | 1018.1 hPa | 0 mm | - | 355 W/m² | - |
| 1778010398 | 16.11° C | 56% | 1018.1 hPa | 0 mm | - | 764 W/m² | - |
| 1778010094 | 16.11° C | 57% | 1018 hPa | 0 mm | - | 505 W/m² | - |
| 1778009791 | 16.11° C | 59% | 1018.1 hPa | 0 mm | - | 365 W/m² | - |
| 1778009488 | 16.67° C | 58% | 1018.1 hPa | 0 mm | - | 343 W/m² | - |
| 1778009187 | 16.11° C | 57% | 1018 hPa | 0 mm | - | 941 W/m² | - |
| 1778008884 | 16.11° C | 56% | 1018.3 hPa | 0 mm | - | 637 W/m² | - |
| 1778008582 | 15.56° C | 58% | 1018.4 hPa | 0 mm | - | 999 W/m² | - |
| 1778008280 | 15.56° C | 59% | 1018.5 hPa | 0 mm | - | 450 W/m² | - |
* Rain latest hour (hover to see other rain measurements)
** Current wind speed in m/s (hover to see current wind gust speed)